Lexington Weather

Lexington, Massachusetts, USA

40°F
11/27/2020 2:48am 
  • Lexington Conditions: Fog, Overcast
  • Temperature: 39.6°F / 4.2°CColder 0.9°F than last hour.
  • Dew Point: 38.8°FDecreased 0.9°Fsince last hour.
  • Relative Humidity: 97
  • Wind: Calm, 10-min avg: Calm, gust: None
  • Barometer: 29.97 in Steady
  • Visibility: ¼ mile
  • Rain Today: 0.00 in
  •   
Southeast Middlesex County - Special Weather Statement
 - SEE ALL NEARBY ALERTS -

Regional Weather Roundup
for Boston / Norton, MA

        
000
ASUS41 KBOX 240104
RWRBOX

REGIONAL WEATHER ROUNDUP
NATIONAL WEATHER SERVICE BOSTON/NORTON MA
800 PM EST MON NOV 23 2020

NOTE:  "FAIR" INDICATES FEW OR NO CLOUDS BELOW 12,000 FEET WITH NO 
SIGNIFICANT WEATHER AND/OR OBSTRUCTIONS TO VISIBILITY.

MAZALL-240200-
EASTERN MASSACHUSETTS
  
CITY           SKY/WX    TMP DP  RH WIND       PRES   REMARKS
BOSTON         PTCLDY    40  27  59 NW18      29.93S WCI  31          
BEVERLY        CLEAR     40  27  59 W12G28    29.90S                  
LAWRENCE       CLEAR     39  27  62 W13G25    29.94S WCI  31          
BEDFORD        CLEAR     39  27  62 NW17      29.94R WCI  30          
BLUE HILL        N/A     36  29  75 W21G29    29.90S WCI  25          
NORWOOD        CLEAR     41  28  60 NW8       29.94S                  
MARSHFIELD     PTCLDY    43  30  61 W9G17     29.91S                  
PLYMOUTH       PTCLDY    40  29  64 W12G21    29.91S                  
TAUNTON        CLEAR     42  28  57 NW9G20    29.94S                  
NEW BEDFORD    CLEAR     41  29  62 NW12G23   29.93S                  
$$

MAZALL-240200-
CAPE COD AND THE ISLANDS
  
CITY           SKY/WX    TMP DP  RH WIND       PRES   REMARKS
FALMOUTH       CLEAR     41  30  65 NW16G24   29.91R                  
HYANNIS        MOCLDY    42  32  67 NW13G22   29.87F                  
CHATHAM        CLOUDY    44  34  67 NW10G24   29.88S                  
NANTUCKET      CLOUDY    45  32  60 NW24G38   29.89R                  
MARTHAS VNYRD  PTCLDY    42  30  62 NW21G30   29.92S                  
$$
 
MAZALL-240200-
CENTRAL AND WESTERN MASSACHUSETTS
  
CITY           SKY/WX    TMP DP  RH WIND       PRES   REMARKS
WORCESTER      CLEAR     35  24  64 W25G37    29.93F WCI  23          
FITCHBURG      CLEAR     37  25  61 NW13      29.97S WCI  29          
ORANGE         CLEAR     36  26  67 NW9       30.00R WCI  29          
SPRINGFIELD    PTCLDY    37  24  58 NW6       30.02R                  
WESTFIELD      PTCLDY    38  26  62 NW10      30.03S WCI  31          
NORTH ADAMS    CLOUDY    37  24  59 W14       30.05R WCI  28          
PITTSFIELD     MOCLDY    33  25  72 NW9G21    30.03R WCI  25          
$$
 
RIZALL-240200-
RHODE ISLAND
  
CITY           SKY/WX    TMP DP  RH WIND       PRES   REMARKS
PROVIDENCE     CLEAR     40  27  59 NW16G22   29.97S WCI  31          
NEWPORT        CLEAR     40  28  62 NW21G30   29.96R WCI  30          
BLOCK ISLAND   CLEAR     40  28  62 NW22G33   30.00S WCI  30          
SMITHFIELD     CLEAR     37  28  70 NW12G18   29.96S WCI  29          
WESTERLY       CLEAR     40  26  57 NW7       30.00S                  
$$
 
CTZALL-240200-
CONNECTICUT
  
CITY           SKY/WX    TMP DP  RH WIND       PRES   REMARKS
BRADLEY INTL   PTCLDY    40  24  53 NW14G24   30.05R                  
HARTFORD       CLEAR     41  24  51 NW14      30.06R                  
BRIDGEPORT     CLEAR     42  28  57 NW6       30.08R                  
DANBURY        CLEAR     40  26  57 NW6       30.08S                  
GROTON         CLEAR     40  27  59 NW13G22   30.01S                  
NEW HAVEN      CLEAR     44  28  53 NW15G25   30.06R                  
CHESTER        FAIR      39  25  56 NW16G23   30.03S WCI  30          
MERIDEN        CLEAR     41  25  53 NW14G22   30.06R                  
WILLIMANTIC    CLEAR     39  27  62 W9G20     30.02S                  
OXFORD         CLEAR     38  26  62 NW13      30.06R WCI  30          
$$

MEZ002-015-021-024-NHZ003-005-008-011-012-014-VTZ005-008-240200-
NORTHERN NEW ENGLAND
  
CITY           SKY/WX    TMP DP  RH WIND       PRES   REMARKS
PORTLAND ME    PTCLDY    36  27  69 NW13G23   29.86R WCI  27          
BANGOR ME      CLOUDY    36  30  79 NW10      29.74S WCI  28          
CONCORD NH     PTCLDY    37  24  59 NW15G30   29.93F WCI  28          
MANCHESTER NH  PTCLDY    39  26  59 W13       29.92S WCI  31          
NASHUA NH      PTCLDY    37  28  70 W10G16    29.96R WCI  30          
PORTSMOUTH NH  PTCLDY    38  24  57 W17G28    29.88S WCI  28          
JAFFREY NH     MOCLDY    35  24  64 VRB5      29.95S WCI  31          
KEENE NH       CLOUDY    36  24  62 NW8       30.00R WCI  30          
BURLINGTON VT  FLURRIES  36  24  62 NW15      30.05S WCI  27          
MT. WASHINGTON FOG        9   9 100 W78G92      N/A  VSB 1/16WCI -23  
$$

NYZ052-076-240200-
EASTERN NEW YORK
  
CITY           SKY/WX    TMP DP  RH WIND       PRES   REMARKS
ALBANY         PTCLDY    32  26  78 W7        30.10S WCI  26          
NEW YORK CITY  PTCLDY    46  28  49 NW15      30.11R                  
$$
 
ANZALL-240200-
MARINE OBSERVATIONS
  
STATION/POSITION TIME  TEMP    WIND        PRES    VSBY  WAVE
                       AIR SEA DIR/SP/G                  HT/PER
                 (UTC) (F)     (DEG/KT/KT) (MB)    (MI)  (FT/S)
BOSTON BUOY      0040   44 51  300/ 25/ 31 1012.9R
BUZZARDS BAY     0000          310/ 30/ 36 1014.8R
NANTUCKET SOUND  0040      52  300/ 25/ 31   N/A
MASS BAY-STELLWA NOT AVBL
ISLE OF SHOALS   0000   41     300/ 28/ 31 1011.1R
S OF BLOCK IS    0026      57                N/A           9/ 7
$$

......................KEY.........................
  SKY/WX - SKY CONDITION/PRESENT WEATHER
  TMP    - TEMPERATURE IN FAHRENHEIT
  DWPT   - DEWPOINT IN FAHRENHEIT
  RH     - RELATIVE HUMIDITY IN PERCENT
  WIND   - DIRECTION AND SPEED IN MPH
  PRES   - MEAN SEA LEVEL PRESSURE IN INCHES OF HG
  WCI    - WIND CHILL INDEX
  VSB    - VISIBILITY IN MILES
  HX     - HEAT INDEX
  TC     - TEMPERATURE IN CELSIUS
  VRB    - VARIABLE WIND DIRECTION
  N/A    - NOT AVAILABLE
  
      

Other recent Regional Weather Roundups

Thu Nov 26, 11:04pm

Thu Nov 26, 10:04pm

Thu Nov 26, 9:04pm

Thu Nov 26, 8:04pm

Thu Nov 26, 7:04pm

Thu Nov 26, 6:04pm

Thu Nov 26, 5:04pm

Thu Nov 26, 4:04pm

Thu Nov 26, 2:04pm

Thu Nov 26, 1:04pm

Thu Nov 26, 12:04pm

Thu Nov 26, 11:04am

Thu Nov 26, 10:04am

Thu Nov 26, 9:04am

Thu Nov 26, 8:04am

Thu Nov 26, 7:04am

Thu Nov 26, 6:04am

Thu Nov 26, 5:04am

Thu Nov 26, 4:04am

Thu Nov 26, 3:04am

Thu Nov 26, 2:04am

Thu Nov 26, 1:04am

Thu Nov 26, 12:04am

Wed Nov 25, 11:04pm

Wed Nov 25, 10:04pm

Wed Nov 25, 9:04pm

Wed Nov 25, 8:04pm

Wed Nov 25, 7:04pm

Wed Nov 25, 6:04pm

Wed Nov 25, 5:04pm

Wed Nov 25, 4:04pm

Wed Nov 25, 3:05pm

Wed Nov 25, 2:04pm

Wed Nov 25, 1:04pm

Wed Nov 25, 12:05pm

Wed Nov 25, 11:04am

Wed Nov 25, 10:04am

Wed Nov 25, 9:04am

Wed Nov 25, 8:04am

Wed Nov 25, 7:04am

Wed Nov 25, 6:04am

Wed Nov 25, 5:04am

Wed Nov 25, 4:04am

Wed Nov 25, 3:04am

Wed Nov 25, 2:04am

Wed Nov 25, 1:04am

Wed Nov 25, 12:04am

Tue Nov 24, 11:04pm

Tue Nov 24, 10:04pm

Tue Nov 24, 9:04pm

Tue Nov 24, 8:04pm

Tue Nov 24, 7:04pm

Tue Nov 24, 6:04pm

Tue Nov 24, 5:04pm

Tue Nov 24, 4:05pm

Tue Nov 24, 3:05pm

Tue Nov 24, 2:05pm

Tue Nov 24, 1:05pm

Tue Nov 24, 12:04pm

Tue Nov 24, 11:04am

Tue Nov 24, 10:04am

Tue Nov 24, 9:04am

Tue Nov 24, 8:04am

Tue Nov 24, 7:04am

Tue Nov 24, 6:04am

Tue Nov 24, 5:04am

Tue Nov 24, 4:05am

Tue Nov 24, 3:04am

Tue Nov 24, 2:04am

Tue Nov 24, 1:04am

Tue Nov 24, 12:05am

Mon Nov 23, 11:04pm

Mon Nov 23, 10:04pm

Mon Nov 23, 9:04pm

Mon Nov 23, 7:04pm

Mon Nov 23, 6:04pm

Mon Nov 23, 5:04pm

Mon Nov 23, 4:04pm

Mon Nov 23, 3:04pm

Mon Nov 23, 2:04pm

Mon Nov 23, 1:04pm

Mon Nov 23, 12:04pm

Mon Nov 23, 11:04am

Mon Nov 23, 10:04am

Mon Nov 23, 9:04am

Mon Nov 23, 8:05am

Mon Nov 23, 7:04am

Mon Nov 23, 6:04am

Mon Nov 23, 5:04am

Mon Nov 23, 4:04am

Mon Nov 23, 3:04am

Mon Nov 23, 2:04am

Mon Nov 23, 1:04am

Mon Nov 23, 12:05am

Sun Nov 22, 11:04pm

Sun Nov 22, 10:04pm

Sun Nov 22, 9:04pm

Sun Nov 22, 8:05pm

Sun Nov 22, 7:04pm

Sun Nov 22, 6:04pm

Sun Nov 22, 5:04pm

Sun Nov 22, 4:04pm

Sun Nov 22, 3:04pm

Sun Nov 22, 2:04pm

Sun Nov 22, 1:05pm

Sun Nov 22, 12:04pm

Sun Nov 22, 11:04am

Sun Nov 22, 10:05am

Sun Nov 22, 9:04am

Sun Nov 22, 8:04am

Sun Nov 22, 7:04am

Sun Nov 22, 6:04am

Sun Nov 22, 5:04am

Sun Nov 22, 4:04am

Sun Nov 22, 3:04am

Sun Nov 22, 2:04am

Sun Nov 22, 1:04am

Sun Nov 22, 12:04am

Sat Nov 21, 11:04pm

Sat Nov 21, 10:04pm

Sat Nov 21, 9:04pm

Sat Nov 21, 8:05pm

Sat Nov 21, 7:04pm

Sat Nov 21, 6:04pm

Sat Nov 21, 5:04pm

Sat Nov 21, 4:05pm

Sat Nov 21, 3:04pm

Sat Nov 21, 2:04pm

Sat Nov 21, 1:05pm

Sat Nov 21, 12:04pm

Sat Nov 21, 11:04am

Sat Nov 21, 10:04am

Sat Nov 21, 9:04am

Sat Nov 21, 8:04am

Sat Nov 21, 7:04am

Sat Nov 21, 6:04am

Sat Nov 21, 5:04am

Sat Nov 21, 4:04am

Sat Nov 21, 3:04am

Sat Nov 21, 2:04am

Sat Nov 21, 1:04am

Sat Nov 21, 12:04am

Fri Nov 20, 11:04pm

Fri Nov 20, 10:04pm

Fri Nov 20, 9:04pm

Fri Nov 20, 8:04pm

Fri Nov 20, 7:04pm

Fri Nov 20, 6:04pm

Fri Nov 20, 5:04pm

Fri Nov 20, 4:05pm

Fri Nov 20, 3:05pm

Fri Nov 20, 2:04pm

Fri Nov 20, 1:04pm

Fri Nov 20, 12:04pm

Fri Nov 20, 11:04am

Fri Nov 20, 10:04am

Fri Nov 20, 9:04am

Fri Nov 20, 8:04am

Fri Nov 20, 7:04am

Fri Nov 20, 6:04am

Fri Nov 20, 5:04am

Fri Nov 20, 4:04am

Fri Nov 20, 3:04am

Meta data:

ID: 23f345c0-794f-4c5c-bc44-739d5d38a085
Link: https://api.weather.gov/products/23f345c0-794f-4c5c-bc44-739d5d38a085